TimeMDT,TemperatureF,Dew PointF,Humidity,Sea Level PressureIn,VisibilityMPH,Wind Direction,Wind SpeedMPH,Gust SpeedMPH,PrecipitationIn,Events,Conditions,WindDirDegrees,DateUTC
12:00 AM,21,14,65,30.53,15,South,6.9,,,,Partly Cloudy,170,2012-10-26 06:00:00
12:00 AM,21.2,14.0,74,30.53,15.0,South,6.9,-,N/A,,Overcast,170,2012-10-26 06:00:00
1:00 AM,21.2,14.0,74,30.53,15.0,South,5.8,-,N/A,,Overcast,180,2012-10-26 07:00:00
2:00 AM,21.2,14.0,74,30.51,15.0,SSE,8.1,-,N/A,,Overcast,150,2012-10-26 08:00:00
3:00 AM,21.2,14.0,74,30.51,15.0,SE,8.1,-,N/A,,Overcast,140,2012-10-26 09:00:00
4:00 AM,19.4,15.8,86,30.50,10.0,South,4.6,-,N/A,,Overcast,170,2012-10-26 10:00:00
5:00 AM,19.4,15.8,86,30.48,10.0,SSW,3.5,-,N/A,,Overcast,200,2012-10-26 11:00:00
6:00 AM,20,14,69,30.48,10,South,6.9,,,,Overcast,170,2012-10-26 12:00:00
6:00 AM,19.4,14.0,80,30.48,10.0,SSE,8.1,-,N/A,,Overcast,160,2012-10-26 12:00:00
7:00 AM,19.4,14.0,80,30.48,10.0,South,5.8,-,N/A,,Overcast,180,2012-10-26 13:00:00
8:00 AM,19.4,14.0,80,30.47,10.0,South,9.2,-,N/A,,Overcast,190,2012-10-26 14:00:00
8:34 AM,19.4,14.0,80,30.47,7.0,SW,6.9,-,N/A,Snow,Light Snow Showers,220,2012-10-26 14:34:00
9:00 AM,19.4,14.0,80,30.47,4.0,SSW,11.5,17.3,N/A,Snow,Light Snow Showers,200,2012-10-26 15:00:00
9:53 AM,19.4,14.0,80,30.46,2.5,SW,9.2,-,N/A,Snow,Light Snow Showers,220,2012-10-26 15:53:00
10:00 AM,19.4,14.0,80,30.47,2.5,SSW,11.5,-,N/A,Snow,Light Snow Showers,210,2012-10-26 16:00:00
10:52 AM,19.4,15.8,86,30.45,4.0,SSW,9.2,-,N/A,Snow,Light Snow Showers,200,2012-10-26 16:52:00
11:00 AM,19.4,14.0,80,30.46,4.0,South,12.7,-,N/A,Snow,Light Snow Showers,170,2012-10-26 17:00:00
12:00 PM,19,13,70,30.46,3,SSE,10.4,,,Snow,Light Snow Showers,160,2012-10-26 18:00:00
12:00 PM,19.4,14.0,80,30.45,3.0,SSE,10.4,-,N/A,Snow,Light Snow Showers,150,2012-10-26 18:00:00
12:09 PM,19.4,14.0,80,30.45,1.8,South,8.1,-,N/A,Snow,Light Snow,190,2012-10-26 18:09:00
12:15 PM,19.4,14.0,80,30.45,1.0,South,10.4,-,N/A,Snow,Light Snow,170,2012-10-26 18:15:00
12:34 PM,19.4,14.0,80,30.45,0.8,South,10.4,-,N/A,Snow,Snow,180,2012-10-26 18:34:00
12:46 PM,19.4,15.8,86,30.44,0.8,South,11.5,-,N/A,Snow,Snow,180,2012-10-26 18:46:00
12:52 PM,19.4,15.8,86,30.44,1.2,South,8.1,-,N/A,Snow,Light Snow Showers,190,2012-10-26 18:52:00
1:00 PM,19.4,14.0,80,30.43,3.0,South,9.2,-,N/A,Snow,Light Snow,190,2012-10-26 19:00:00
2:00 PM,21.2,14.0,74,30.41,5.0,South,11.5,-,N/A,Snow,Light Snow,180,2012-10-26 20:00:00
3:00 PM,21.2,14.0,74,30.39,5.0,South,9.2,-,N/A,Snow,Light Snow,180,2012-10-26 21:00:00
4:00 PM,21.2,15.8,80,30.38,3.0,South,10.4,-,N/A,Snow,Light Snow,190,2012-10-26 22:00:00
4:29 PM,21.2,15.8,80,30.38,1.5,SSE,10.4,-,N/A,Snow,Light Snow,160,2012-10-26 22:29:00
5:00 PM,21.2,15.8,80,30.38,2.5,SSE,9.2,-,N/A,Snow,Light Snow,160,2012-10-26 23:00:00
5:18 PM,19.4,15.8,86,30.38,4.0,SSE,9.2,-,N/A,Snow,Light Snow,160,2012-10-26 23:18:00
6:00 PM,20,15,74,30.36,7,SSE,10.4,,,Snow,Light Snow,160,2012-10-27 00:00:00
6:00 PM,19.4,15.8,86,30.36,7.0,South,8.1,-,N/A,Snow,Light Snow,170,2012-10-27 00:00:00
6:27 PM,19.4,15.8,86,30.36,7.0,South,9.2,-,N/A,,Overcast,170,2012-10-27 00:27:00
7:00 PM,19.4,15.8,86,30.36,7.0,SSE,11.5,-,N/A,,Overcast,150,2012-10-27 01:00:00
8:00 PM,19.4,15.8,86,30.35,7.0,South,10.4,-,N/A,,Overcast,170,2012-10-27 02:00:00
8:40 PM,19.4,15.8,86,30.34,7.0,South,12.7,19.6,N/A,,Mostly Cloudy,170,2012-10-27 02:40:00
9:00 PM,19.4,15.8,86,30.34,7.0,South,10.4,18.4,N/A,,Overcast,180,2012-10-27 03:00:00
10:00 PM,19.4,15.8,86,30.33,7.0,South,10.4,-,N/A,,Overcast,180,2012-10-27 04:00:00
11:00 PM,19.4,15.8,86,30.31,7.0,South,11.5,17.3,N/A,,Overcast,180,2012-10-27 05:00:00